Language: 


Des rapports , des résumés tant et plus, au choix de chacun....


Données statistiques de la station
Quotidien Rapport Février 23, 2017 Unités:  Anglais    Métrique   les deux
« Précédent Jour
Suivant Jour »
Quotidien Hebdomadaire Mensuel Annuel Actuel
  Haut: Bas: Moyen:
Température: 53.4 °F 45 °F 49.3 °F
Pt de rosée: 49.5 °F 31.3 °F 42.8 °F
Humidité: 96 % 54 % 80 %
Vitesse du vent: 48.8 mph 0 mph 20.6 mph
Rafales: 59.1 mph - -
Vent:- - WSW
Pression: 29.7 in 29.4 in -
Précipitation: 0.07 in    
Historical Graphs
 
 
Données statistiques pour Février 23, 2017
Heure Température Point de rosée Pression Vent Vitesse du vent Refales Humidité Pluie (taux horaire)
00:04 50.5 °F 49.5 °F 29.7 in WSW 17.7 mph 28 mph 96 % 0 in
00:09 50.5 °F 49.5 °F 29.7 in West 17.7 mph 27.1 mph 96 % 0 in
00:14 50.5 °F 49.5 °F 29.7 in WSW 28.4 mph 28.4 mph 96 % 0 in
00:19 50.5 °F 49.5 °F 29.7 in WSW 23.5 mph 28.4 mph 96 % 0 in
00:24 50.5 °F 49.5 °F 29.7 in WSW 19.5 mph 28.4 mph 96 % 0 in
00:29 50.5 °F 49.5 °F 29.7 in West 19.5 mph 28.4 mph 96 % 0.01 in
00:34 50.5 °F 49.5 °F 29.7 in WNW 14.8 mph 28.4 mph 96 % 0.01 in
00:39 50.5 °F 49.5 °F 29.7 in West 22.8 mph 30.4 mph 96 % 0.01 in
00:44 50.4 °F 49.3 °F 29.7 in West 24.2 mph 30.4 mph 96 % 0.01 in
00:49 50.4 °F 49.3 °F 29.7 in WSW 14.1 mph 26.2 mph 96 % 0.01 in
00:54 50.4 °F 49.3 °F 29.7 in WSW 23 mph 26.8 mph 96 % 0.01 in
00:59 50.4 °F 49.3 °F 29.7 in WSW 14.5 mph 27.1 mph 96 % 0.01 in
01:04 50.4 °F 49.3 °F 29.7 in WSW 21.3 mph 27.1 mph 96 % 0.01 in
01:09 50.2 °F 49.1 °F 29.7 in WSW 20.4 mph 24.6 mph 96 % 0.01 in
01:14 50.2 °F 49.1 °F 29.7 in WSW 14.8 mph 24.6 mph 96 % 0.01 in
01:19 50.2 °F 49.1 °F 29.7 in West 17.7 mph 26.4 mph 96 % 0.01 in
01:24 50.2 °F 49.1 °F 29.7 in West 22.8 mph 27.5 mph 96 % 0 in
01:29 50.2 °F 49.1 °F 29.7 in WSW 18.6 mph 27.5 mph 96 % 0 in
01:34 50.2 °F 49.1 °F 29.7 in West 21.3 mph 30.2 mph 96 % 0 in
01:39 50.2 °F 49.1 °F 29.7 in WSW 23.9 mph 30.2 mph 96 % 0 in
01:44 50.2 °F 49.1 °F 29.7 in West 17.7 mph 28.6 mph 96 % 0 in
01:49 50.2 °F 48.7 °F 29.7 in WSW 22.8 mph 28.6 mph 95 % 0 in
01:54 50.2 °F 48.7 °F 29.7 in WSW 17.4 mph 25.9 mph 95 % 0 in
01:59 50.2 °F 48.7 °F 29.7 in WSW 22.6 mph 27.5 mph 95 % 0 in
02:04 50.2 °F 48.7 °F 29.7 in West 17.7 mph 29.8 mph 95 % 0 in
02:09 50.2 °F 48.7 °F 29.7 in WSW 15.4 mph 29.8 mph 95 % 0 in
02:14 50 °F 48.4 °F 29.7 in WSW 19.9 mph 25.7 mph 94 % 0 in
02:19 50 °F 48.4 °F 29.7 in WSW 14.8 mph 23.9 mph 94 % 0 in
02:24 50 °F 48.4 °F 29.7 in WSW 17.2 mph 26.2 mph 94 % 0 in
02:29 50 °F 48 °F 29.7 in WSW 22.4 mph 26.4 mph 93 % 0 in
02:34 50 °F 48 °F 29.7 in WSW 23 mph 30.9 mph 93 % 0 in
02:37 50 °F 48 °F 29.7 in WSW 19 mph 30.9 mph 93 % 0 in
02:43 50 °F 48 °F 29.7 in WSW 15.4 mph 30.9 mph 93 % 0 in
02:47 49.8 °F 47.8 °F 29.7 in WSW 23.3 mph 24.2 mph 93 % 0 in
02:52 49.8 °F 48.2 °F 29.7 in WSW 15.2 mph 25.5 mph 94 % 0 in
02:57 49.8 °F 48.2 °F 29.7 in WSW 21.9 mph 25.5 mph 94 % 0 in
03:02 49.8 °F 48.2 °F 29.7 in WSW 11.4 mph 25.7 mph 94 % 0 in
03:08 49.8 °F 47.8 °F 29.7 in WSW 23 mph 25.1 mph 93 % 0 in
03:13 49.8 °F 47.8 °F 29.7 in WSW 13 mph 29.8 mph 93 % 0 in
03:18 49.8 °F 47.7 °F 29.7 in WSW 17 mph 29.8 mph 92 % 0 in
03:23 49.8 °F 47.7 °F 29.6 in WSW 17.4 mph 30.4 mph 92 % 0 in
03:28 49.8 °F 47.7 °F 29.6 in WSW 12.5 mph 30.4 mph 92 % 0 in
03:33 49.6 °F 47.7 °F 29.6 in West 19.7 mph 25.7 mph 93 % 0 in
03:38 49.6 °F 47.7 °F 29.6 in WSW 19.2 mph 23.9 mph 93 % 0 in
03:43 49.6 °F 47.7 °F 29.6 in WSW 22.8 mph 30 mph 93 % 0 in
03:48 49.6 °F 47.7 °F 29.6 in West 14.8 mph 30 mph 93 % 0 in
03:53 49.6 °F 47.7 °F 29.7 in WSW 18.8 mph 26.4 mph 93 % 0 in
03:58 49.6 °F 47.7 °F 29.7 in WSW 14.5 mph 23.9 mph 93 % 0 in
04:03 49.6 °F 48 °F 29.7 in WSW 14.8 mph 23.9 mph 94 % 0 in
04:08 49.6 °F 48 °F 29.7 in WSW 23.5 mph 25.3 mph 94 % 0 in
04:13 49.5 °F 47.8 °F 29.7 in SW 22.8 mph 25.3 mph 94 % 0 in
04:18 49.5 °F 47.8 °F 29.7 in WSW 22.8 mph 23 mph 94 % 0 in
04:23 49.5 °F 47.8 °F 29.6 in West 14.3 mph 22.8 mph 94 % 0 in
04:28 49.3 °F 47.8 °F 29.6 in WSW 22.4 mph 22.8 mph 95 % 0 in
04:33 49.3 °F 47.8 °F 29.6 in WSW 15.4 mph 25.1 mph 95 % 0 in
04:38 49.3 °F 47.8 °F 29.6 in WSW 16.3 mph 25.5 mph 95 % 0 in
04:43 49.3 °F 47.8 °F 29.6 in West 17.7 mph 27.5 mph 95 % 0 in
04:48 49.1 °F 47.7 °F 29.6 in WSW 12.5 mph 27.5 mph 95 % 0 in
04:53 49.1 °F 47.7 °F 29.6 in WSW 12.5 mph 25.5 mph 95 % 0 in
04:58 49.1 °F 47.7 °F 29.6 in WSW 17 mph 26.8 mph 95 % 0 in
05:03 49.1 °F 47.7 °F 29.6 in SW 17.9 mph 26.8 mph 95 % 0 in
05:08 49.1 °F 47.7 °F 29.6 in WSW 19.7 mph 25.9 mph 95 % 0 in
05:13 49.1 °F 47.7 °F 29.6 in SW 17.4 mph 23.7 mph 95 % 0 in
05:18 49.1 °F 47.7 °F 29.6 in WSW 19.9 mph 22.6 mph 95 % 0 in
05:23 49.1 °F 47.7 °F 29.6 in WSW 20.8 mph 22.6 mph 95 % 0 in
05:28 49.1 °F 47.7 °F 29.6 in WSW 21.5 mph 21.5 mph 95 % 0 in
05:33 49.1 °F 47.7 °F 29.6 in WSW 23.5 mph 23.5 mph 95 % 0 in
05:38 49.1 °F 47.7 °F 29.6 in WSW 24.6 mph 24.6 mph 95 % 0 in
05:43 49.1 °F 47.7 °F 29.6 in WSW 15.2 mph 24.6 mph 95 % 0 in
05:48 49.1 °F 47.7 °F 29.6 in SW 12.5 mph 23.5 mph 95 % 0 in
05:53 49.1 °F 47.7 °F 29.6 in West 13.2 mph 21.3 mph 95 % 0 in
05:58 49.1 °F 47.7 °F 29.6 in SW 11 mph 21.3 mph 95 % 0 in
06:03 48.9 °F 47.7 °F 29.6 in SW 11 mph 17.7 mph 95 % 0 in
06:08 48.9 °F 47.8 °F 29.6 in SW 10.5 mph 21 mph 96 % 0 in
06:13 48.9 °F 47.8 °F 29.6 in WSW 19.5 mph 21 mph 96 % 0 in
06:18 48.9 °F 47.8 °F 29.6 in WSW 10.7 mph 21.3 mph 96 % 0 in
06:23 48.9 °F 47.8 °F 29.6 in SW 10.1 mph 21.3 mph 96 % 0 in
06:28 48.7 °F 47.7 °F 29.6 in SSW 14.8 mph 19.9 mph 96 % 0 in
06:33 48.7 °F 47.7 °F 29.6 in WSW 12.1 mph 19.9 mph 96 % 0 in
06:38 48.7 °F 47.7 °F 29.6 in SSW 12.5 mph 19.5 mph 96 % 0 in
06:43 48.6 °F 47.5 °F 29.6 in SW 14.8 mph 19.5 mph 96 % 0 in
06:48 48.6 °F 47.5 °F 29.6 in SW 10.7 mph 17.7 mph 96 % 0 in
06:53 48.6 °F 47.5 °F 29.6 in SW 14.8 mph 19.2 mph 96 % 0 in
06:58 48.6 °F 47.5 °F 29.6 in SW 14.8 mph 19.2 mph 96 % 0 in
07:03 48.6 °F 47.5 °F 29.6 in SSW 10.7 mph 21.3 mph 96 % 0 in
07:08 48.4 °F 47.3 °F 29.6 in SW 17.2 mph 21.3 mph 96 % 0 in
07:13 48.4 °F 47.3 °F 29.6 in SW 9.8 mph 19.2 mph 96 % 0 in
07:18 48.4 °F 47.3 °F 29.6 in WSW 14.3 mph 19.2 mph 96 % 0 in
07:23 48.2 °F 47.1 °F 29.6 in SW 13 mph 18.8 mph 96 % 0 in
07:28 48.2 °F 47.1 °F 29.6 in SW 13 mph 18.8 mph 96 % 0 in
07:33 48.2 °F 47.1 °F 29.6 in SW 10.7 mph 16.3 mph 96 % 0 in
07:38 48.2 °F 47.1 °F 29.6 in SW 11.9 mph 15.4 mph 96 % 0 in
07:43 48.2 °F 47.1 °F 29.6 in SSW 13.4 mph 17.4 mph 96 % 0 in
07:48 48.2 °F 47.1 °F 29.6 in SW 12.5 mph 17.4 mph 96 % 0 in
07:53 48.2 °F 47.1 °F 29.6 in WSW 17.7 mph 21.9 mph 96 % 0 in
07:58 48.4 °F 47.3 °F 29.6 in WSW 12.5 mph 21.9 mph 96 % 0 in
08:03 48.4 °F 47.3 °F 29.6 in WSW 10.1 mph 17.7 mph 96 % 0 in
08:08 48.4 °F 47.3 °F 29.5 in SSW 14.3 mph 20.6 mph 96 % 0 in
08:13 48.4 °F 47.3 °F 29.5 in SW 10.7 mph 20.6 mph 96 % 0 in
08:18 48.4 °F 47.3 °F 29.5 in WSW 10.3 mph 17.7 mph 96 % 0 in
08:23 48.4 °F 47.3 °F 29.5 in WSW 10.5 mph 17.7 mph 96 % 0 in
08:28 48.4 °F 47.3 °F 29.5 in SSW 12.1 mph 15.2 mph 96 % 0 in
08:33 48.4 °F 47.3 °F 29.5 in SW 11 mph 17 mph 96 % 0 in
08:38 48.4 °F 47.3 °F 29.5 in SW 15.9 mph 17.2 mph 96 % 0 in
08:43 48.4 °F 47.3 °F 29.5 in WSW 18.8 mph 18.8 mph 96 % 0 in
08:48 48.4 °F 47.3 °F 29.5 in SW 13 mph 21.5 mph 96 % 0 in
08:53 48.4 °F 47.3 °F 29.5 in SW 15.2 mph 22.1 mph 96 % 0 in
08:58 48.4 °F 47.3 °F 29.5 in SW 18.6 mph 22.6 mph 96 % 0 in
09:03 48.4 °F 47.3 °F 29.5 in SW 13.6 mph 22.6 mph 96 % 0 in
09:08 48.6 °F 47.5 °F 29.5 in SW 12.3 mph 22.4 mph 96 % 0 in
09:13 48.6 °F 47.5 °F 29.5 in SW 12.5 mph 22.1 mph 96 % 0 in
09:18 48.6 °F 47.5 °F 29.5 in SSW 22.1 mph 22.4 mph 96 % 0 in
09:23 48.6 °F 47.5 °F 29.5 in SSW 21.9 mph 22.4 mph 96 % 0 in
09:28 48.6 °F 47.5 °F 29.5 in SSW 17 mph 22.1 mph 96 % 0 in
09:33 48.6 °F 47.5 °F 29.5 in SW 11 mph 21.9 mph 96 % 0 in
09:38 48.6 °F 47.5 °F 29.5 in SSW 16.3 mph 17.4 mph 96 % 0 in
09:43 48.7 °F 47.7 °F 29.5 in WSW 14.8 mph 22.4 mph 96 % 0 in
09:48 48.6 °F 47.5 °F 29.5 in SW 19.9 mph 22.4 mph 96 % 0 in
09:53 48.6 °F 47.5 °F 29.5 in SW 12.3 mph 23 mph 96 % 0 in
09:58 48.6 °F 47.5 °F 29.5 in SSW 8.9 mph 23 mph 96 % 0 in
10:03 48.7 °F 47.7 °F 29.5 in WSW 14.8 mph 19 mph 96 % 0 in
10:08 48.7 °F 47.7 °F 29.5 in SSW 10.5 mph 19 mph 96 % 0 in
10:13 48.7 °F 47.7 °F 29.5 in SW 12.5 mph 19.2 mph 96 % 0 in
10:18 48.9 °F 47.8 °F 29.5 in WSW 12.3 mph 23.3 mph 96 % 0 in
10:23 48.9 °F 47.8 °F 29.4 in South 10.3 mph 23.3 mph 96 % 0 in
10:28 49.1 °F 48 °F 29.4 in WSW 12.5 mph 17.7 mph 96 % 0 in
10:33 49.1 °F 48 °F 29.4 in SSW 12.8 mph 26.6 mph 96 % 0.01 in
10:38 49.3 °F 48.2 °F 29.4 in SSW 12.8 mph 26.6 mph 96 % 0.01 in
10:43 49.3 °F 48.2 °F 29.4 in SSW 22.1 mph 22.1 mph 96 % 0.01 in
10:48 49.5 °F 48.4 °F 29.4 in WSW 15.4 mph 24.2 mph 96 % 0.01 in
10:53 49.6 °F 48.4 °F 29.4 in WSW 10.7 mph 24.2 mph 95 % 0.01 in
10:58 49.8 °F 48.4 °F 29.4 in SSW 16.3 mph 23.7 mph 95 % 0.01 in
11:03 49.8 °F 48.4 °F 29.4 in WSW 12.8 mph 23.7 mph 95 % 0.01 in
11:08 50 °F 48.4 °F 29.4 in SW 13.2 mph 23.9 mph 94 % 0.01 in
11:13 50 °F 48 °F 29.4 in SW 17.7 mph 24.6 mph 93 % 0.01 in
11:18 50.2 °F 48.2 °F 29.4 in WSW 19.2 mph 24.6 mph 93 % 0.01 in
11:23 50.2 °F 47.8 °F 29.4 in SW 19.5 mph 29.5 mph 92 % 0.01 in
11:28 50 °F 48 °F 29.4 in WSW 19.2 mph 29.5 mph 93 % 0.01 in
11:33 50 °F 48 °F 29.4 in SW 12.5 mph 28.4 mph 93 % 0 in
11:38 49.8 °F 48.2 °F 29.4 in SW 16.8 mph 28.4 mph 94 % 0 in
11:43 49.8 °F 48.2 °F 29.4 in WSW 10.3 mph 24.6 mph 94 % 0 in
11:48 49.8 °F 48.4 °F 29.4 in WSW 23 mph 26.4 mph 95 % 0 in
11:53 49.8 °F 48.4 °F 29.4 in WSW 23.5 mph 27.7 mph 95 % 0 in
11:58 49.8 °F 48.4 °F 29.4 in WSW 12.3 mph 27.7 mph 95 % 0 in
12:03 49.8 °F 48.7 °F 29.4 in WSW 22.4 mph 26.8 mph 96 % 0 in
12:08 49.8 °F 48.7 °F 29.4 in WSW 23.7 mph 25.5 mph 96 % 0 in
12:13 50 °F 48.9 °F 29.4 in WSW 40 mph 44.1 mph 96 % 0.01 in
12:18 49.8 °F 48.4 °F 29.4 in West 24.4 mph 44.1 mph 95 % 0.02 in
12:23 50 °F 48.9 °F 29.4 in WSW 25.1 mph 40.9 mph 96 % 0.03 in
12:28 50.4 °F 49.3 °F 29.4 in WSW 25.9 mph 30.2 mph 96 % 0.03 in
12:33 50.5 °F 49.1 °F 29.4 in SW 28.9 mph 37.1 mph 95 % 0.03 in
12:38 51.1 °F 48.6 °F 29.4 in West 31.1 mph 39.6 mph 91 % 0.03 in
12:43 52 °F 48.2 °F 29.4 in WSW 34.4 mph 42.1 mph 87 % 0.03 in
12:48 52 °F 47.7 °F 29.4 in WSW 25.7 mph 42.1 mph 85 % 0.03 in
12:53 51.6 °F 45.7 °F 29.4 in WSW 36.7 mph 39.4 mph 80 % 0.05 in
12:58 51.4 °F 45.1 °F 29.4 in WSW 27.7 mph 43.4 mph 79 % 0.05 in
13:03 51.4 °F 45.1 °F 29.4 in WSW 23.3 mph 43.4 mph 79 % 0.05 in
13:08 51.4 °F 43.7 °F 29.4 in WSW 23.5 mph 36.9 mph 75 % 0.05 in
13:13 52.5 °F 46 °F 29.4 in WSW 31.1 mph 36.9 mph 79 % 0.04 in
13:18 53.1 °F 46 °F 29.4 in West 25.5 mph 40.7 mph 77 % 0.03 in
13:23 52.5 °F 45.3 °F 29.4 in West 33.3 mph 41.8 mph 76 % 0.01 in
13:28 53.2 °F 45.3 °F 29.4 in West 42.7 mph 44.3 mph 75 % 0.01 in
13:33 53.4 °F 43.5 °F 29.4 in WSW 32.2 mph 50.3 mph 69 % 0.01 in
13:38 53.2 °F 41.7 °F 29.4 in WSW 48.8 mph 50.3 mph 65 % 0.01 in
13:43 53.1 °F 41.5 °F 29.4 in West 34 mph 48.8 mph 65 % 0.01 in
13:48 53.1 °F 41.2 °F 29.4 in WSW 37.1 mph 43.8 mph 64 % 0.01 in
13:53 53.1 °F 41.9 °F 29.4 in West 39.6 mph 47 mph 66 % 0 in
13:58 52.5 °F 40.5 °F 29.4 in West 41.8 mph 47 mph 63 % 0 in
14:03 52.5 °F 40.6 °F 29.4 in WSW 32.7 mph 45.9 mph 64 % 0 in
14:08 52.5 °F 39.7 °F 29.4 in West 40 mph 59.1 mph 62 % 0 in
14:13 52.2 °F 39.9 °F 29.4 in West 38.7 mph 59.1 mph 63 % 0 in
14:18 51.8 °F 39.9 °F 29.4 in West 43.8 mph 51.9 mph 64 % 0 in
14:23 51.6 °F 40.3 °F 29.4 in West 47 mph 51.9 mph 65 % 0 in
14:28 51.6 °F 39.4 °F 29.4 in West 33.1 mph 47.6 mph 63 % 0 in
14:33 51.4 °F 39.6 °F 29.4 in WSW 35.3 mph 47.6 mph 64 % 0 in
14:38 51.3 °F 39 °F 29.4 in WSW 43.4 mph 49.4 mph 63 % 0 in
14:43 51.3 °F 39.6 °F 29.4 in West 24.4 mph 49.4 mph 64 % 0 in
14:48 51.3 °F 39.9 °F 29.4 in WSW 37.8 mph 44.1 mph 65 % 0 in
14:53 51.3 °F 40.6 °F 29.4 in West 30 mph 44.1 mph 67 % 0 in
14:58 51.4 °F 40.8 °F 29.4 in West 33.1 mph 43.8 mph 67 % 0 in
15:03 51.6 °F 40.6 °F 29.4 in SW 37.6 mph 40.9 mph 66 % 0 in
15:08 51.4 °F 39.9 °F 29.4 in WSW 38.9 mph 46.8 mph 65 % 0 in
15:13 51.4 °F 39.2 °F 29.4 in WSW 39.4 mph 47.6 mph 63 % 0 in
15:18 51.8 °F 39.6 °F 29.4 in West 26.6 mph 47.6 mph 63 % 0 in
15:23 51.6 °F 39 °F 29.4 in WSW 44.5 mph 53 mph 62 % 0 in
15:28 52 °F 39.7 °F 29.4 in West 39.1 mph 53 mph 63 % 0 in
15:33 51.8 °F 39 °F 29.4 in West 37.6 mph 46.3 mph 62 % 0 in
15:38 51.8 °F 38.3 °F 29.4 in West 36.5 mph 46.3 mph 60 % 0 in
15:43 52.2 °F 39.9 °F 29.4 in West 35.3 mph 46.1 mph 63 % 0 in
15:48 51.4 °F 37.6 °F 29.4 in West 37.4 mph 46.5 mph 59 % 0 in
15:53 51.3 °F 38.7 °F 29.4 in West 23.9 mph 46.5 mph 62 % 0 in
15:58 51.4 °F 37.6 °F 29.4 in West 29.5 mph 47.6 mph 59 % 0 in
16:03 51.6 °F 38.1 °F 29.4 in West 42.1 mph 47.6 mph 60 % 0 in
16:04 51.6 °F 38.1 °F 29.4 in WSW 33.1 mph 47.6 mph 60 % 0 in
16:09 51.4 °F 37.6 °F 29.4 in WSW 32 mph 47.6 mph 59 % 0 in
16:10 51.4 °F 37.6 °F 29.4 in WNW 42.3 mph 47.6 mph 59 % 0 in
16:15 51.1 °F 37.6 °F 29.4 in WNW 37.4 mph 49.4 mph 60 % 0 in
16:20 51.1 °F 37.2 °F 29.4 in West 33.1 mph 51.7 mph 59 % 0 in
16:25 50.9 °F 37 °F 29.4 in WSW 44.3 mph 51.7 mph 59 % 0 in
16:30 50.7 °F 37.8 °F 29.4 in West 33.6 mph 47.2 mph 61 % 0 in
16:35 50.7 °F 36.9 °F 29.4 in West 40.3 mph 51 mph 59 % 0 in
16:40 50.9 °F 37 °F 29.4 in West 25.7 mph 51 mph 59 % 0 in
16:45 50.9 °F 37 °F 29.4 in West 30.2 mph 44.3 mph 59 % 0 in
16:50 50.7 °F 36.9 °F 29.4 in West 32.4 mph 44.1 mph 59 % 0 in
16:55 50.5 °F 37.6 °F 29.4 in West 24.2 mph 44.1 mph 61 % 0 in
17:00 50.2 °F 36.9 °F 29.4 in WSW 30.9 mph 42.1 mph 60 % 0 in
17:05 50.2 °F 37.6 °F 29.4 in West 25.3 mph 39.8 mph 62 % 0 in
17:10 50 °F 36.7 °F 29.4 in West 32.9 mph 47.2 mph 60 % 0 in
17:15 50 °F 36.7 °F 29.4 in West 32.9 mph 47.2 mph 60 % 0 in
17:20 49.8 °F 36.9 °F 29.4 in West 32.4 mph 37.8 mph 61 % 0 in
17:25 49.6 °F 36.3 °F 29.4 in West 26.6 mph 43.4 mph 60 % 0 in
17:30 49.5 °F 37 °F 29.4 in WSW 24.6 mph 43.4 mph 62 % 0 in
17:35 49.3 °F 36.9 °F 29.4 in West 28.9 mph 39.4 mph 62 % 0 in
17:40 49.1 °F 36.7 °F 29.4 in WSW 27.7 mph 39.4 mph 62 % 0 in
17:45 48.9 °F 36.5 °F 29.4 in West 32.7 mph 37.1 mph 62 % 0 in
17:50 48.7 °F 36.7 °F 29.4 in West 25.9 mph 37.1 mph 63 % 0 in
17:55 48.4 °F 36.9 °F 29.4 in West 33.1 mph 37.8 mph 64 % 0 in
18:00 48.4 °F 36.9 °F 29.4 in SSW 30 mph 42.3 mph 64 % 0 in
18:05 48.4 °F 36.9 °F 29.4 in West 30.4 mph 42.3 mph 64 % 0 in
18:10 48.2 °F 37 °F 29.4 in WNW 26.4 mph 36.5 mph 65 % 0 in
18:15 48 °F 36.9 °F 29.4 in West 34 mph 34 mph 65 % 0 in
18:20 48 °F 36.9 °F 29.4 in WSW 27.5 mph 34.7 mph 65 % 0 in
18:25 47.8 °F 37 °F 29.4 in WSW 29.8 mph 35.6 mph 66 % 0 in
18:30 47.7 °F 36.9 °F 29.4 in West 30.4 mph 35.6 mph 66 % 0 in
18:35 47.7 °F 36.9 °F 29.4 in WSW 25.5 mph 33.3 mph 66 % 0 in
18:40 47.5 °F 36.7 °F 29.4 in WSW 18.6 mph 33.3 mph 66 % 0 in
18:45 47.5 °F 36.7 °F 29.4 in West 28.6 mph 30 mph 66 % 0 in
18:50 47.5 °F 37 °F 29.4 in West 29.8 mph 35.3 mph 67 % 0 in
18:55 47.5 °F 37 °F 29.4 in West 25.9 mph 35.3 mph 67 % 0 in
19:00 47.5 °F 36.7 °F 29.4 in WSW 27.5 mph 34.7 mph 66 % 0 in
19:05 47.5 °F 36.3 °F 29.4 in West 29.1 mph 34.7 mph 65 % 0 in
19:10 47.5 °F 36 °F 29.4 in West 27.1 mph 35.3 mph 64 % 0 in
19:15 47.5 °F 36 °F 29.4 in West 17.9 mph 37.6 mph 64 % 0 in
19:20 47.5 °F 36 °F 29.4 in West 24.2 mph 37.6 mph 64 % 0 in
19:25 47.5 °F 36 °F 29.4 in West 17.2 mph 34.4 mph 64 % 0 in
19:30 47.3 °F 35.4 °F 29.4 in West 17.2 mph 31.1 mph 63 % 0 in
19:35 47.3 °F 35.8 °F 29.4 in West 26.6 mph 31.1 mph 64 % 0 in
19:40 47.3 °F 35.8 °F 29.4 in WSW 16.8 mph 32.9 mph 64 % 0 in
19:45 47.3 °F 36.1 °F 29.4 in West 22.8 mph 32.9 mph 65 % 0 in
19:50 47.5 °F 36 °F 29.4 in WSW 15.2 mph 34 mph 64 % 0 in
19:55 47.3 °F 36.1 °F 29.5 in West 25.5 mph 34 mph 65 % 0 in
20:00 47.3 °F 36.7 °F 29.5 in West 23.7 mph 33.1 mph 66 % 0 in
20:05 47.3 °F 36.7 °F 29.5 in West 19.9 mph 33.1 mph 66 % 0 in
20:10 47.3 °F 36.7 °F 29.5 in West 23.3 mph 36.9 mph 66 % 0 in
20:15 47.3 °F 36.7 °F 29.5 in NW 22.1 mph 36.9 mph 66 % 0 in
20:20 47.1 °F 36.9 °F 29.5 in West 13 mph 33.1 mph 67 % 0 in
20:25 46.9 °F 36.7 °F 29.5 in WSW 13.9 mph 25.1 mph 67 % 0 in
20:30 46.9 °F 36.7 °F 29.5 in West 22.4 mph 22.8 mph 67 % 0 in
20:35 46.9 °F 36.7 °F 29.5 in West 18.8 mph 25.9 mph 67 % 0 in
20:40 46.9 °F 36.7 °F 29.5 in WNW 13.2 mph 26.2 mph 67 % 0 in
20:45 47.3 °F 36.1 °F 29.5 in West 12.8 mph 26.2 mph 65 % 0 in
20:50 47.3 °F 36.1 °F 29.5 in West 25.3 mph 25.3 mph 65 % 0 in
20:55 47.3 °F 35.8 °F 29.5 in NW 17.2 mph 25.3 mph 64 % 0 in
21:00 47.5 °F 35.1 °F 29.5 in WSW 16.8 mph 26.2 mph 62 % 0 in
21:05 47.5 °F 34.7 °F 29.5 in NW 16.8 mph 28 mph 61 % 0 in
21:10 47.5 °F 34.3 °F 29.5 in NNW 11.2 mph 28 mph 60 % 0 in
21:15 47.3 °F 34.2 °F 29.5 in West 10.7 mph 19.7 mph 60 % 0 in
21:20 47.5 °F 34 °F 29.5 in West 7.6 mph 17.4 mph 59 % 0 in
21:25 47.5 °F 33.4 °F 29.6 in West 15.7 mph 22.6 mph 58 % 0 in
21:30 47.5 °F 33.1 °F 29.6 in WNW 12.3 mph 23.5 mph 57 % 0 in
21:35 47.3 °F 32.4 °F 29.6 in WNW 11.4 mph 23.7 mph 56 % 0 in
21:40 47.3 °F 32.4 °F 29.6 in WNW 14.3 mph 23.7 mph 56 % 0 in
21:45 47.3 °F 32.9 °F 29.6 in WNW 8.7 mph 22.8 mph 57 % 0 in
21:50 47.1 °F 32.7 °F 29.6 in NW 13.9 mph 18.8 mph 57 % 0 in
21:55 46.9 °F 32.2 °F 29.6 in WNW 19.7 mph 19.7 mph 56 % 0 in
22:00 46.9 °F 32.2 °F 29.6 in WSW 6.3 mph 20.4 mph 56 % 0 in
22:05 46.9 °F 31.6 °F 29.6 in West 5.4 mph 22.1 mph 55 % 0 in
22:10 46.9 °F 31.3 °F 29.6 in West 8.1 mph 24.4 mph 54 % 0 in
22:15 46.9 °F 31.6 °F 29.6 in North 5.8 mph 24.4 mph 55 % 0 in
22:20 46.8 °F 31.8 °F 29.6 in South 8.7 mph 17.2 mph 56 % 0 in
22:25 46.8 °F 31.8 °F 29.6 in North 6.3 mph 22.1 mph 56 % 0 in
22:30 46.6 °F 32.2 °F 29.6 in WNW 11.9 mph 22.1 mph 57 % 0 in
22:35 46.6 °F 32.5 °F 29.6 in West 19.5 mph 19.5 mph 58 % 0 in
22:40 46.6 °F 32 °F 29.6 in NNW 8.7 mph 25.1 mph 57 % 0 in
22:45 46.6 °F 32.5 °F 29.6 in NNW 9.4 mph 25.1 mph 58 % 0 in
22:50 46.2 °F 32.7 °F 29.6 in WNW 14.3 mph 16.3 mph 59 % 0 in
22:55 46.2 °F 33.3 °F 29.6 in WNW 14.5 mph 16.3 mph 60 % 0 in
23:00 46 °F 33.4 °F 29.6 in West 9.8 mph 14.5 mph 61 % 0 in
23:05 46 °F 33.4 °F 29.6 in West 10.1 mph 14.8 mph 61 % 0 in
23:10 46 °F 33.8 °F 29.6 in WNW 5.8 mph 14.8 mph 62 % 0 in
23:11 46 °F 33.8 °F 29.6 in NNE 6.7 mph 12.1 mph 62 % 0 in
23:16 45.9 °F 34 °F 29.6 in West 3.8 mph 11.9 mph 63 % 0 in
23:21 45.9 °F 34.3 °F 29.6 in WNW 10.5 mph 11 mph 64 % 0 in
23:26 45.9 °F 34.3 °F 29.6 in West 13 mph 14.5 mph 64 % 0 in
23:31 45.9 °F 34.7 °F 29.6 in Calm   17 mph 65 % 0 in
23:36 45.9 °F 34.7 °F 29.6 in East 4.3 mph 17 mph 65 % 0 in
23:41 45.7 °F 34.9 °F 29.6 in West 3.8 mph 14.8 mph 66 % 0 in
23:46 45.3 °F 35.1 °F 29.6 in NW 6.3 mph 15.4 mph 67 % 0 in
23:51 45.1 °F 35.1 °F 29.6 in NW 3.4 mph 15.4 mph 68 % 0 in
23:53 45.1 °F 35.1 °F 29.6 in West 2.5 mph 15.4 mph 68 % 0 in
23:58 45 °F 35.2 °F 29.6 in NW 2.9 mph 9.4 mph 69 % 0 in
Le Gheer Warneton
Courtoisie de Weather Underground - 2.5 mb

Mise a jour : 17/12/2017 22:35:11
Généré par Cumulus 1.9.4 (1099)